JST603 YSSY-YMAV

Flight info

Callsign JST603
Flight time 1h 15m
Altitude 34000
Route WOL H65 LEECE Q29 ML W15 AV
Aircraft A321/M-SDE3FGHIRWY/LB1

Departure

Time 2026-04-17 12:40
Airport Sydney Kingsford Smith International Airport (YSSY)

Arrival

Time 2026-04-17 13:56
Airport Melbourne Avalon International Airport (YMAV)
Time Latitude Longitude Altitude Speed Heading
2026-04-17 12:02 -33.93626 151.17891 31 ft 0 kts 99°
2026-04-17 12:27 -33.93624 151.17879 31 ft 4 kts 98°
2026-04-17 12:28 -33.93621 151.17848 30 ft 3 kts 99°
2026-04-17 12:28 -33.93615 151.17822 30 ft 4 kts 141°
2026-04-17 12:28 -33.93596 151.17819 30 ft 4 kts 203°
2026-04-17 12:28 -33.93575 151.17828 30 ft 1 kts 190°
2026-04-17 12:33 -33.93576 151.17828 30 ft 1 kts 190°
2026-04-17 12:33 -33.93602 151.17821 30 ft 7 kts 202°
2026-04-17 12:34 -33.93632 151.17777 30 ft 7 kts 205°
2026-04-17 12:34 -33.93663 151.17744 30 ft 6 kts 258°
2026-04-17 12:34 -33.93657 151.17683 30 ft 8 kts 280°
2026-04-17 12:34 -33.93646 151.17602 26 ft 15 kts 279°
2026-04-17 12:35 -33.93554 151.17521 18 ft 19 kts 349°
2026-04-17 12:35 -33.93431 151.17505 21 ft 17 kts
2026-04-17 12:35 -33.93315 151.17487 21 ft 18 kts 348°
2026-04-17 12:35 -33.93203 151.17458 21 ft 8 kts 347°
2026-04-17 12:37 -33.92960 151.17318 20 ft 0 kts 281°
2026-04-17 12:39 -33.92959 151.17312 20 ft 3 kts 281°
2026-04-17 12:39 -33.92958 151.17238 20 ft 15 kts 254°
2026-04-17 12:39 -33.93057 151.17190 20 ft 17 kts 169°
2026-04-17 12:40 -33.93193 151.17223 22 ft 27 kts 168°
2026-04-17 12:40 -33.93594 151.17328 16 ft 95 kts 167°
2026-04-17 12:40 -33.94440 151.17541 107 ft 149 kts 169°
2026-04-17 12:40 -33.95441 151.17782 971 ft 146 kts 174°
2026-04-17 12:41 -33.96427 151.17807 1595 ft 141 kts 182°
2026-04-17 12:41 -33.97376 151.17763 1907 ft 154 kts 181°
2026-04-17 12:41 -33.98515 151.17706 2070 ft 175 kts 182°
2026-04-17 12:41 -33.99783 151.17647 2252 ft 190 kts 183°
2026-04-17 12:42 -34.01118 151.17588 2602 ft 193 kts 182°
2026-04-17 12:42 -34.02491 151.17544 2881 ft 207 kts 179°
2026-04-17 12:42 -34.03981 151.17969 3075 ft 233 kts 163°
2026-04-17 12:42 -34.05560 151.18535 3707 ft 239 kts 168°
2026-04-17 12:43 -34.07179 151.19065 4442 ft 244 kts 169°
2026-04-17 12:43 -34.08841 151.19600 5019 ft 252 kts 168°
2026-04-17 12:43 -34.10561 151.20150 5696 ft 257 kts 169°
2026-04-17 12:43 -34.12311 151.20714 6373 ft 263 kts 171°
2026-04-17 12:44 -34.14085 151.21291 7119 ft 264 kts 170°
2026-04-17 12:44 -34.15866 151.21881 7821 ft 267 kts 169°
2026-04-17 12:44 -34.17679 151.22370 8466 ft 267 kts 180°
2026-04-17 12:44 -34.19520 151.22219 9114 ft 265 kts 198°
2026-04-17 12:45 -34.21212 151.21359 9731 ft 265 kts 216°
2026-04-17 12:45 -34.22580 151.19891 10395 ft 265 kts 231°
2026-04-17 12:45 -34.23827 151.18142 10646 ft 284 kts 231°
2026-04-17 12:45 -34.25133 151.16306 11160 ft 290 kts 231°
2026-04-17 12:46 -34.26449 151.14457 11846 ft 292 kts 231°
2026-04-17 12:46 -34.27782 151.12579 12463 ft 296 kts 231°
2026-04-17 12:46 -34.29127 151.10687 13174 ft 297 kts 230°
2026-04-17 12:46 -34.30486 151.08775 13791 ft 302 kts 231°
2026-04-17 12:47 -34.31859 151.06836 14394 ft 304 kts 231°
2026-04-17 12:47 -34.33242 151.04886 14997 ft 307 kts 231°
2026-04-17 12:47 -34.34638 151.02916 15523 ft 311 kts 229°
2026-04-17 12:47 -34.36051 151.00924 16105 ft 313 kts 229°
2026-04-17 12:48 -34.37515 150.98968 16704 ft 315 kts 223°
2026-04-17 12:48 -34.39176 150.97149 16882 ft 330 kts 221°
2026-04-17 12:48 -34.40930 150.95255 17052 ft 345 kts 221°
2026-04-17 12:48 -34.42741 150.93304 17477 ft 351 kts 221°
2026-04-17 12:49 -34.44570 150.91329 18056 ft 353 kts 221°
2026-04-17 12:49 -34.46407 150.89335 18615 ft 355 kts 221°
2026-04-17 12:49 -34.48248 150.87332 19131 ft 357 kts 221°
2026-04-17 12:49 -34.50097 150.85319 19652 ft 360 kts 220°
2026-04-17 12:50 -34.51972 150.83282 20124 ft 363 kts 220°
2026-04-17 12:50 -34.53855 150.81231 20622 ft 365 kts 220°
2026-04-17 12:50 -34.55698 150.79109 21127 ft 369 kts 226°
2026-04-17 12:50 -34.57282 150.76649 21606 ft 372 kts 231°
2026-04-17 12:51 -34.58811 150.74105 22076 ft 374 kts 231°
2026-04-17 12:51 -34.60347 150.71559 22595 ft 374 kts 232°
2026-04-17 12:51 -34.61892 150.69005 23085 ft 376 kts 232°
2026-04-17 12:51 -34.62918 150.67308 23402 ft 377 kts 232°
2026-04-17 12:52 -34.64469 150.64743 23835 ft 378 kts 232°
2026-04-17 12:52 -34.66031 150.62156 24208 ft 380 kts 232°
2026-04-17 12:52 -34.67593 150.59558 24603 ft 381 kts 232°
2026-04-17 12:52 -34.69156 150.56955 24997 ft 382 kts 233°
2026-04-17 12:53 -34.70726 150.54337 25372 ft 383 kts 233°
2026-04-17 12:53 -34.72298 150.51714 25745 ft 385 kts 233°
2026-04-17 12:53 -34.73875 150.49076 26112 ft 386 kts 233°
2026-04-17 12:53 -34.75454 150.46428 26475 ft 387 kts 234°
2026-04-17 12:54 -34.77039 150.43773 26800 ft 389 kts 233°
2026-04-17 12:54 -34.78632 150.41113 27178 ft 389 kts 233°
2026-04-17 12:54 -34.80230 150.38445 27539 ft 391 kts 234°
2026-04-17 12:54 -34.81818 150.35792 27895 ft 392 kts 233°
2026-04-17 12:55 -34.83424 150.33104 28205 ft 393 kts 234°
2026-04-17 12:55 -34.85039 150.30401 28533 ft 395 kts 234°
2026-04-17 12:55 -34.86655 150.27693 28869 ft 396 kts 234°
2026-04-17 12:55 -34.88279 150.24967 29208 ft 398 kts 234°
2026-04-17 12:56 -34.89902 150.22237 29539 ft 399 kts 234°
2026-04-17 12:56 -34.91531 150.19498 29865 ft 400 kts 234°
2026-04-17 12:56 -34.93159 150.16758 30224 ft 399 kts 234°
2026-04-17 12:56 -34.94779 150.14032 30639 ft 396 kts 235°
2026-04-17 12:57 -34.96391 150.11315 31017 ft 394 kts 235°
2026-04-17 12:57 -34.97994 150.08611 31392 ft 393 kts 235°
2026-04-17 12:57 -34.99595 150.05904 31695 ft 393 kts 235°
2026-04-17 12:57 -35.01191 150.03206 32037 ft 392 kts 235°
2026-04-17 12:58 -35.02784 150.00509 32364 ft 391 kts 236°
2026-04-17 12:58 -35.04374 149.97816 32682 ft 391 kts 236°
2026-04-17 12:58 -35.05957 149.95132 33007 ft 390 kts 236°
2026-04-17 12:58 -35.07542 149.92448 33313 ft 389 kts 236°
2026-04-17 12:59 -35.09124 149.89768 33620 ft 389 kts 236°
2026-04-17 12:59 -35.10699 149.87094 33901 ft 387 kts 237°
2026-04-17 12:59 -35.12273 149.84424 34167 ft 387 kts 236°
2026-04-17 13:00 -35.15378 149.79141 34165 ft 380 kts 236°
2026-04-17 13:00 -35.18457 149.73894 34168 ft 379 kts 236°
2026-04-17 13:01 -35.21532 149.68655 34174 ft 379 kts 236°
2026-04-17 13:01 -35.24601 149.63406 34174 ft 379 kts 236°
2026-04-17 13:02 -35.27668 149.58153 34172 ft 379 kts 236°
2026-04-17 13:02 -35.30738 149.52892 34164 ft 380 kts 236°
2026-04-17 13:03 -35.33814 149.47618 34167 ft 381 kts 236°
2026-04-17 13:03 -35.36892 149.42332 34169 ft 381 kts 236°
2026-04-17 13:04 -35.39968 149.37040 34171 ft 381 kts 236°
2026-04-17 13:04 -35.43040 149.31738 34206 ft 381 kts 235°
2026-04-17 13:05 -35.46106 149.26435 34193 ft 380 kts 235°
2026-04-17 13:05 -35.49162 149.21165 34181 ft 379 kts 235°
2026-04-17 13:06 -35.52208 149.15889 34182 ft 379 kts 235°
2026-04-17 13:06 -35.55279 149.10562 34190 ft 380 kts 235°
2026-04-17 13:07 -35.58313 149.05296 34204 ft 380 kts 235°
2026-04-17 13:07 -35.61371 148.99979 34195 ft 381 kts 235°
2026-04-17 13:08 -35.64428 148.94652 34198 ft 380 kts 235°
2026-04-17 13:08 -35.67470 148.89360 34187 ft 379 kts 235°
2026-04-17 13:09 -35.70515 148.84032 34187 ft 380 kts 235°
2026-04-17 13:09 -35.73562 148.78698 34194 ft 381 kts 235°
2026-04-17 13:10 -35.76614 148.73346 34170 ft 383 kts 235°
2026-04-17 13:10 -35.79671 148.67973 34189 ft 383 kts 235°
2026-04-17 13:11 -35.82727 148.62603 34194 ft 383 kts 235°
2026-04-17 13:11 -35.85773 148.57232 34218 ft 383 kts 235°
2026-04-17 13:12 -35.88832 148.51837 34212 ft 384 kts 235°
2026-04-17 13:12 -35.93413 148.43720 34185 ft 385 kts 235°
2026-04-17 13:13 -35.96465 148.38287 34196 ft 385 kts 236°
2026-04-17 13:13 -35.99516 148.32848 34220 ft 385 kts 235°
2026-04-17 13:14 -36.02567 148.27407 34221 ft 386 kts 235°
2026-04-17 13:14 -36.05625 148.21956 34220 ft 386 kts 235°
2026-04-17 13:15 -36.08683 148.16485 34186 ft 387 kts 235°
2026-04-17 13:15 -36.11742 148.11002 34195 ft 388 kts 235°
2026-04-17 13:16 -36.14812 148.05508 34197 ft 389 kts 235°
2026-04-17 13:16 -36.17895 148.00006 34204 ft 389 kts 235°
2026-04-17 13:17 -36.20567 147.95221 34211 ft 389 kts 235°
2026-04-17 13:17 -36.22697 147.91388 34185 ft 389 kts 235°
2026-04-17 13:18 -36.25767 147.85863 34203 ft 390 kts 236°
2026-04-17 13:18 -36.28841 147.80341 34225 ft 388 kts 235°
2026-04-17 13:19 -36.31898 147.74831 34216 ft 388 kts 235°
2026-04-17 13:19 -36.34954 147.69301 34217 ft 389 kts 235°
2026-04-17 13:20 -36.38004 147.63762 34192 ft 389 kts 236°
2026-04-17 13:20 -36.41049 147.58221 34220 ft 390 kts 235°
2026-04-17 13:21 -36.44114 147.52651 34216 ft 390 kts 235°
2026-04-17 13:21 -36.47181 147.47071 34224 ft 391 kts 235°
2026-04-17 13:22 -36.50243 147.41477 34232 ft 392 kts 235°
2026-04-17 13:22 -36.53301 147.35884 34208 ft 392 kts 235°
2026-04-17 13:23 -36.56366 147.30273 34227 ft 392 kts 235°
2026-04-17 13:23 -36.59433 147.24649 34232 ft 393 kts 235°
2026-04-17 13:24 -36.62499 147.19024 34233 ft 393 kts 235°
2026-04-17 13:24 -36.65563 147.13389 34231 ft 392 kts 235°
2026-04-17 13:25 -36.68611 147.07761 34216 ft 392 kts 235°
2026-04-17 13:25 -36.71664 147.02128 34219 ft 393 kts 235°
2026-04-17 13:26 -36.74725 146.96471 34225 ft 394 kts 235°
2026-04-17 13:26 -36.77716 146.90928 34228 ft 394 kts 235°
2026-04-17 13:27 -36.80766 146.85266 34176 ft 395 kts 235°
2026-04-17 13:27 -36.82332 146.82354 33849 ft 394 kts 235°
2026-04-17 13:27 -36.83851 146.79535 33579 ft 395 kts 235°
2026-04-17 13:28 -36.85371 146.76713 33319 ft 395 kts 234°
2026-04-17 13:28 -36.86886 146.73899 33057 ft 396 kts 234°
2026-04-17 13:28 -36.88404 146.71073 32795 ft 397 kts 234°
2026-04-17 13:28 -36.89914 146.68257 32536 ft 396 kts 234°
2026-04-17 13:29 -36.91437 146.65411 32285 ft 395 kts 234°
2026-04-17 13:29 -36.92960 146.62554 32034 ft 394 kts 234°
2026-04-17 13:29 -36.94473 146.59713 31782 ft 392 kts 234°
2026-04-17 13:29 -36.95983 146.56885 31530 ft 390 kts 234°
2026-04-17 13:30 -36.97486 146.54067 31292 ft 389 kts 234°
2026-04-17 13:30 -36.98984 146.51257 31031 ft 388 kts 234°
2026-04-17 13:30 -37.00458 146.48495 30788 ft 387 kts 233°
2026-04-17 13:30 -37.01948 146.45696 30548 ft 385 kts 233°
2026-04-17 13:31 -37.03431 146.42909 30302 ft 384 kts 233°
2026-04-17 13:31 -37.04907 146.40129 30020 ft 383 kts 233°
2026-04-17 13:31 -37.06351 146.37408 29749 ft 381 kts 233°
2026-04-17 13:31 -37.07819 146.34644 29466 ft 379 kts 233°
2026-04-17 13:32 -37.09278 146.31897 29187 ft 377 kts 233°
2026-04-17 13:32 -37.10731 146.29165 28890 ft 376 kts 233°
2026-04-17 13:32 -37.12176 146.26446 28617 ft 374 kts 233°
2026-04-17 13:32 -37.13615 146.23728 28343 ft 373 kts 233°
2026-04-17 13:33 -37.15041 146.21031 28075 ft 371 kts 233°
2026-04-17 13:33 -37.16463 146.18335 27805 ft 370 kts 233°
2026-04-17 13:33 -37.17876 146.15653 27541 ft 368 kts 233°
2026-04-17 13:33 -37.19281 146.12988 27296 ft 365 kts 233°
2026-04-17 13:34 -37.20226 146.11194 27118 ft 364 kts 233°
2026-04-17 13:34 -37.22066 146.07693 26780 ft 362 kts 234°
2026-04-17 13:34 -37.22983 146.05948 26605 ft 361 kts 234°
2026-04-17 13:34 -37.24359 146.03327 26335 ft 360 kts 233°
2026-04-17 13:35 -37.25733 146.00709 26085 ft 358 kts 234°
2026-04-17 13:35 -37.27100 145.98101 25830 ft 357 kts 234°
2026-04-17 13:35 -37.28460 145.95504 25584 ft 356 kts 234°
2026-04-17 13:35 -37.29821 145.92907 25349 ft 355 kts 233°
2026-04-17 13:36 -37.31176 145.90328 25116 ft 354 kts 233°
2026-04-17 13:36 -37.32531 145.87753 24869 ft 352 kts 234°
2026-04-17 13:36 -37.33898 145.85157 24633 ft 351 kts 233°
2026-04-17 13:36 -37.35225 145.82634 24395 ft 350 kts 234°
2026-04-17 13:37 -37.36564 145.80083 24161 ft 349 kts 234°
2026-04-17 13:37 -37.37890 145.77548 23906 ft 348 kts 234°
2026-04-17 13:37 -37.39221 145.74997 23648 ft 348 kts 234°
2026-04-17 13:37 -37.40550 145.72452 23376 ft 347 kts 234°
2026-04-17 13:38 -37.41872 145.69921 23100 ft 345 kts 234°
2026-04-17 13:38 -37.43188 145.67401 22833 ft 344 kts 234°
2026-04-17 13:38 -37.44493 145.64880 22565 ft 343 kts 236°
2026-04-17 13:38 -37.45516 145.62164 22294 ft 346 kts 246°
2026-04-17 13:39 -37.46279 145.59293 22031 ft 346 kts 247°
2026-04-17 13:39 -37.47039 145.56420 21781 ft 345 kts 247°
2026-04-17 13:39 -37.47793 145.53567 21517 ft 342 kts 247°
2026-04-17 13:39 -37.48541 145.50742 21115 ft 337 kts 247°
2026-04-17 13:40 -37.49279 145.47961 20704 ft 334 kts 247°
2026-04-17 13:40 -37.50013 145.45199 20247 ft 331 kts 247°
2026-04-17 13:40 -37.50744 145.42451 19811 ft 330 kts 247°
2026-04-17 13:40 -37.51470 145.39722 19366 ft 328 kts 247°
2026-04-17 13:41 -37.52190 145.37009 18930 ft 326 kts 247°
2026-04-17 13:41 -37.52900 145.34319 18465 ft 325 kts 247°
2026-04-17 13:41 -37.53614 145.31603 17980 ft 323 kts 247°
2026-04-17 13:41 -37.54316 145.28931 17535 ft 320 kts 247°
2026-04-17 13:42 -37.55015 145.26282 17072 ft 317 kts 248°
2026-04-17 13:42 -37.55708 145.23660 16658 ft 314 kts 247°
2026-04-17 13:42 -37.56394 145.21061 16232 ft 311 kts 248°
2026-04-17 13:42 -37.57073 145.18485 15805 ft 309 kts 248°
2026-04-17 13:43 -37.57748 145.15921 15375 ft 307 kts 248°
2026-04-17 13:43 -37.58415 145.13370 14950 ft 305 kts 248°
2026-04-17 13:43 -37.59078 145.10834 14520 ft 304 kts 248°
2026-04-17 13:43 -37.59736 145.08323 14108 ft 302 kts 248°
2026-04-17 13:44 -37.60374 145.05881 13665 ft 301 kts 248°
2026-04-17 13:44 -37.61022 145.03394 13254 ft 298 kts 248°
2026-04-17 13:44 -37.61660 145.00941 12841 ft 296 kts 248°
2026-04-17 13:44 -37.62298 144.98501 12429 ft 294 kts 248°
2026-04-17 13:45 -37.62897 144.96209 12050 ft 292 kts 248°
2026-04-17 13:45 -37.63547 144.93715 11641 ft 290 kts 248°
2026-04-17 13:45 -37.64169 144.91328 11250 ft 288 kts 248°
2026-04-17 13:45 -37.64787 144.88942 10859 ft 287 kts 248°
2026-04-17 13:46 -37.65398 144.86579 10578 ft 282 kts 248°
2026-04-17 13:46 -37.65995 144.84300 10357 ft 275 kts 245°
2026-04-17 13:46 -37.66743 144.82138 10174 ft 270 kts 242°
2026-04-17 13:46 -37.67499 144.80005 10035 ft 270 kts 242°
2026-04-17 13:47 -37.68224 144.77951 9692 ft 275 kts 243°
2026-04-17 13:47 -37.69025 144.75683 9334 ft 272 kts 243°
2026-04-17 13:47 -37.69793 144.73506 8853 ft 274 kts 243°
2026-04-17 13:47 -37.70558 144.71330 8535 ft 271 kts 243°
2026-04-17 13:48 -37.71312 144.69180 7999 ft 270 kts 243°
2026-04-17 13:48 -37.72052 144.67065 7446 ft 269 kts 243°
2026-04-17 13:48 -37.72807 144.64913 6888 ft 268 kts 243°
2026-04-17 13:48 -37.73548 144.62800 6412 ft 265 kts 243°
2026-04-17 13:49 -37.74276 144.60726 5945 ft 262 kts 243°
2026-04-17 13:49 -37.74991 144.58684 5507 ft 259 kts 243°
2026-04-17 13:49 -37.75729 144.56576 5051 ft 258 kts 243°
2026-04-17 13:49 -37.76431 144.54575 4625 ft 256 kts 243°
2026-04-17 13:50 -37.77366 144.52682 4199 ft 252 kts 224°
2026-04-17 13:50 -37.78697 144.51389 4055 ft 239 kts 206°
2026-04-17 13:50 -37.80178 144.50729 3777 ft 234 kts 188°
2026-04-17 13:50 -37.81695 144.50472 3544 ft 216 kts 187°
2026-04-17 13:51 -37.83169 144.50227 3407 ft 207 kts 188°
2026-04-17 13:51 -37.84574 144.49992 3319 ft 198 kts 187°
2026-04-17 13:51 -37.85860 144.49777 3216 ft 179 kts 188°
2026-04-17 13:51 -37.87033 144.49580 3136 ft 174 kts 188°
2026-04-17 13:52 -37.88166 144.49390 2964 ft 171 kts 188°
2026-04-17 13:52 -37.89298 144.49200 2765 ft 169 kts 188°
2026-04-17 13:52 -37.90460 144.49005 2533 ft 154 kts 188°
2026-04-17 13:52 -37.91479 144.48834 2327 ft 145 kts 188°
2026-04-17 13:53 -37.92457 144.48670 2139 ft 141 kts 189°
2026-04-17 13:53 -37.93373 144.48516 1948 ft 139 kts 189°
2026-04-17 13:53 -37.94355 144.48351 1756 ft 140 kts 189°
2026-04-17 13:53 -37.95311 144.48190 1555 ft 141 kts 189°
2026-04-17 13:54 -37.97259 144.47862 1151 ft 144 kts 189°
2026-04-17 13:54 -37.98234 144.47699 956 ft 147 kts 189°
2026-04-17 13:55 -38.00271 144.47352 583 ft 149 kts 192°
2026-04-17 13:55 -38.01276 144.47185 393 ft 148 kts 191°
2026-04-17 13:55 -38.03308 144.46857 43 ft 147 kts 190°
2026-04-17 13:56 -38.04744 144.46598 28 ft 57 kts 188°
2026-04-17 13:56 -38.05063 144.46543 27 ft 42 kts 187°
2026-04-17 13:56 -38.05325 144.46501 28 ft 36 kts 188°
2026-04-17 13:57 -38.05443 144.46537 27 ft 8 kts 99°
2026-04-17 13:57 -38.05441 144.46619 27 ft 10 kts 90°
2026-04-17 13:57 -38.05320 144.46717 27 ft 17 kts
2026-04-17 13:58 -38.05159 144.46745 27 ft 26 kts
2026-04-17 13:58 -38.04797 144.46806 27 ft 27 kts
2026-04-17 13:58 -38.04608 144.46837 27 ft 28 kts
2026-04-17 13:59 -38.04252 144.46897 27 ft 25 kts
2026-04-17 13:59 -38.04078 144.46928 26 ft 26 kts
2026-04-17 13:59 -38.03909 144.46954 27 ft 26 kts
2026-04-17 14:00 -38.03729 144.46989 27 ft 27 kts 10°
2026-04-17 14:00 -38.03545 144.47016 27 ft 27 kts
2026-04-17 14:00 -38.03364 144.47048 27 ft 24 kts
2026-04-17 14:00 -38.03230 144.47164 27 ft 25 kts 53°
2026-04-17 14:01 -38.03110 144.47308 27 ft 24 kts 21°
2026-04-17 14:01 -38.02943 144.47347 27 ft 25 kts
2026-04-17 14:01 -38.02821 144.47350 27 ft 14 kts 336°
2026-04-17 14:01 -38.02786 144.47262 27 ft 8 kts 309°
2026-04-17 14:02 -38.02741 144.47261 27 ft 8 kts
2026-04-17 14:02 -38.02718 144.47265 27 ft 0 kts